{"data":{"norad_id":52607,"epoch":"2026-09-19T23:33:56.312064Z","epoch_age_seconds":107704,"freshness":"FRESH","line1":"1 52607U 22052K   26262.98190176 -.00000070  00000+0  95123-5 0  9992","line2":"2 52607  53.1593 120.2180 0001324  82.9794 277.1358 15.31700618240260","mean_motion":15.31700618,"eccentricity":0.0001324,"inclination_deg":53.1593,"raan_deg":120.218,"arg_perigee_deg":82.9794,"mean_anomaly_deg":277.1358,"bstar":9.5123e-6,"rev_number":24026,"period_min":94.013150029296,"perigee_km":469.83136193017,"apogee_km":471.64494407068,"semimajor_km":6848.8751530004,"source":"CELESTRAK","updated_at":"2026-09-20T09:00:40.069383Z"}}